Погода в Алаке

Россия / Республика Дагестан     42°38′17″N   46°12′18″E
темп.,
°C
ветер,
м/с
пор.,
м/с
влажн.,
%
обл.,
%
осадки,
мм/ч
давл.,
гПа
погр.,
м
26 июня, вс
вс2600:00+11зюз2284100 0.1 101126
03:00+11ююз1297100 3.4 101166
06:00+12вюв0287100 0.0 101089
09:00+17в1167100 0.0 1007510
12:00+16зюз127692 1.0 1008346
15:00+19св2269100 1.9 1006958
18:00+17св2181100 1.6 1007523
21:00+14юв1194100 6.3 101034
27 июня, пн
пн2700:00+12сз119116 0.2 101110
03:00+11юз11890 0.2 101111
06:00+13сз11800 0.0 101281
09:00+18св11634 0.0 1010589
12:00+20с226332 0.1 10101081
15:00+17с338468 2.2 1011485
18:00+16с228882 2.1 1012306
21:00+14сз2294100 6.8 101446
28 июня, вт
вт2800:00+13сз229393 0.1 101383
03:00+13сз229350 0.2 101388
06:00+14зсз228937 0.1 1012170
09:00+16ссз228050 0.3 1011638
12:00+18с327466 0.1 1011917
15:00+17с337263 0.5 1013808
18:00+15ссз228043 0.9 1014342
21:00+13ссз228540 1.4 101638
29 июня, ср
ср2900:00+11ссз11863 0.0 101610
03:00+10юз018763 0.0 101610
06:00+13зсз018260 0.1 101679
09:00+16в127137 0.3 1014814
12:00+18св227087 0.8 1014985
15:00+18св227079 2.4 1014781
18:00+16в1180100 1.4 1015188
21:00+13вюв019182 2.4 101720
30 июня, чт
чт3000:00+12з119095 0.4 101613
03:00+12юв0189100 0.4 101510
06:00+13юв118833 0.0 1015105
09:00+17в117330 0.1 1014743
12:00+18ссв217549 2.2 1013818
15:00+16с328397 4.9 1014605
18:00+14с1292100 0.9 1015237
21:00+12зсз1194100 2.1 101872